START_TIME,STEP,MOV.,M15,t_acc.,M20,t_acc.
1989-08-24T09:00:44.800 ,2,0,0.,24.0,0.,24.0
1989-08-24T09:01:08.800 ,1,1,0.,24.0,0.,24.0
1989-08-24T09:01:32.800 ,1,0,0.,24.0,0.,24.0
1989-08-24T09:01:56.800 ,0,1,0.,24.0,0.,24.0
1989-08-24T09:02:20.800 ,0,0,0.,24.0,0.,24.0
1989-08-24T09:02:44.800 ,0,1,0.,24.0,0.,24.0
1989-08-24T09:03:08.800 ,0,0,0.,24.0,0.,24.0
1989-08-24T09:03:32.800 ,1,1,0.,24.0,0.,24.0
1989-08-24T09:03:56.800 ,1,0,0.,24.0,0.,24.0
1989-08-24T09:04:20.800 ,2,1,0.,24.0,0.,24.0
1989-08-24T09:04:44.800 ,2,0,0.,24.0,0.,24.0
1989-08-24T09:05:08.800 ,3,1,0.,24.0,0.,24.0
1989-08-24T09:05:32.800 ,3,0,0.,24.0,0.,24.0
1989-08-24T09:05:56.800 ,4,1,0.,24.0,0.,24.0
1989-08-24T09:06:20.800 ,4,0,0.,24.0,0.,24.0
1989-08-24T09:06:44.800 ,5,1,0.,24.0,0.,24.0
1989-08-24T09:07:08.800 ,5,0,0.,24.0,0.,24.0
1989-08-24T09:07:32.800 ,6,1,0.,24.0,0.,24.0
1989-08-24T09:07:56.800 ,6,0,0.,24.0,0.,24.0
1989-08-24T09:08:20.800 ,7,1,0.,24.0,0.,24.0
1989-08-24T09:08:44.800 ,7,0,0.,24.0,0.,24.0
1989-08-24T09:09:08.800 ,7,1,0.,24.0,0.,24.0
1989-08-24T09:09:32.800 ,7,0,0.,24.0,0.,24.0
1989-08-24T09:09:56.800 ,6,1,0.,24.0,0.,24.0
1989-08-24T09:10:20.800 ,6,0,0.,24.0,0.,24.0
1989-08-24T09:10:44.800 ,5,1,0.,24.0,0.,24.0
1989-08-24T09:11:08.800 ,5,0,0.,24.0,0.,24.0
1989-08-24T09:11:32.800 ,4,1,0.,24.0,0.,24.0
1989-08-24T09:11:56.800 ,4,0,0.,24.0,0.,24.0
1989-08-24T09:12:20.800 ,3,1,0.,24.0,0.,24.0
1989-08-24T09:12:44.800 ,3,0,0.,24.0,0.,24.0
1989-08-24T09:13:08.800 ,2,1,0.,24.0,0.,24.0
1989-08-24T09:13:32.800 ,2,0,0.,24.0,0.,24.0
1989-08-24T09:13:56.800 ,1,1,0.,24.0,0.,24.0
1989-08-24T09:14:20.800 ,1,0,0.,24.0,0.,24.0
1989-08-24T09:14:44.800 ,0,1,0.,24.0,0.,24.0
1989-08-24T09:15:08.800 ,0,0,0.,24.0,0.,24.0
1989-08-24T09:15:32.800 ,0,1,0.,24.0,0.,24.0
1989-08-24T09:15:56.800 ,0,0,0.,24.0,0.,24.0
1989-08-24T09:16:20.800 ,1,1,0.,24.0,0.,24.0
1989-08-24T09:16:44.800 ,1,0,0.,24.0,0.,24.0
1989-08-24T09:17:08.800 ,2,1,0.,24.0,0.,24.0
1989-08-24T09:17:32.800 ,2,0,0.,24.0,0.,24.0
1989-08-24T09:17:56.800 ,3,1,0.,24.0,0.,24.0
1989-08-24T09:18:20.800 ,3,0,0.,24.0,0.,24.0
1989-08-24T09:18:44.800 ,4,1,0.,24.0,0.,24.0
1989-08-24T09:19:08.800 ,4,0,0.,24.0,0.,24.0
1989-08-24T09:19:32.800 ,5,1,0.,24.0,0.,24.0
1989-08-24T09:19:56.800 ,5,0,0.,24.0,0.,24.0
1989-08-24T09:20:20.800 ,6,1,0.,24.0,0.,24.0
1989-08-24T09:20:44.800 ,6,0,0.,24.0,0.,24.0
1989-08-24T09:21:08.800 ,7,1,0.,24.0,0.,24.0
1989-08-24T09:21:32.800 ,7,0,0.,24.0,0.,24.0
1989-08-24T09:21:56.800 ,7,1,0.,24.0,0.,24.0
1989-08-24T09:22:20.800 ,7,0,0.,24.0,0.,24.0
1989-08-24T09:22:44.800 ,6,1,0.,24.0,0.,24.0
1989-08-24T09:23:08.800 ,6,0,0.,24.0,0.,24.0
1989-08-24T09:23:32.800 ,5,1,0.,24.0,0.,24.0
1989-08-24T09:23:56.800 ,5,0,0.,24.0,0.,24.0
1989-08-24T09:24:20.800 ,4,1,0.,24.0,0.,24.0
1989-08-24T09:24:44.800 ,4,0,0.,24.0,0.,24.0
1989-08-24T09:25:08.800 ,3,1,0.,24.0,0.,24.0
1989-08-24T09:25:32.800 ,3,0,0.,24.0,0.,24.0
1989-08-24T09:25:56.800 ,2,1,0.,24.0,0.,24.0
1989-08-24T09:26:20.800 ,2,0,0.,24.0,0.,24.0
1989-08-24T09:26:44.800 ,1,1,0.,24.0,0.,24.0
1989-08-24T09:27:08.800 ,1,0,0.,24.0,0.,24.0
1989-08-24T09:27:32.800 ,0,1,0.,24.0,0.,24.0
1989-08-24T09:27:56.800 ,0,0,0.,24.0,0.,24.0
1989-08-24T09:28:20.800 ,0,1,0.,24.0,0.,24.0
1989-08-24T09:28:44.800 ,0,0,0.,24.0,0.,24.0
1989-08-24T09:29:08.800 ,1,1,0.,24.0,0.,24.0
1989-08-24T09:29:32.800 ,1,0,0.,24.0,0.,24.0
1989-08-24T09:29:56.800 ,2,1,0.,24.0,0.,24.0
1989-08-24T09:30:20.800 ,2,0,0.,24.0,0.,24.0
1989-08-24T09:30:44.800 ,3,1,0.,24.0,0.,24.0
1989-08-24T09:31:08.800 ,3,0,0.,24.0,0.,24.0
1989-08-24T09:31:32.800 ,4,1,0.,24.0,0.,24.0
1989-08-24T09:31:56.800 ,4,0,0.,24.0,0.,24.0
1989-08-24T09:32:20.800 ,5,1,0.,24.0,0.,24.0
1989-08-24T09:32:44.800 ,5,0,0.,24.0,0.,24.0
1989-08-24T09:33:08.800 ,6,1,0.,24.0,0.,24.0
1989-08-24T09:33:32.800 ,6,0,0.,24.0,0.,24.0
1989-08-24T09:33:56.800 ,7,1,0.,24.0,0.,24.0
1989-08-24T09:34:20.800 ,7,0,0.,24.0,0.,24.0
1989-08-24T09:34:44.800 ,7,1,0.,24.0,0.,24.0
1989-08-24T09:35:08.800 ,7,0,0.,24.0,0.,24.0
1989-08-24T09:35:32.800 ,6,1,0.,24.0,0.,24.0
1989-08-24T09:35:56.800 ,6,0,0.,24.0,0.,24.0
1989-08-24T09:36:20.800 ,5,1,0.,24.0,0.,24.0
1989-08-24T09:36:44.800 ,5,0,0.,24.0,0.,24.0
1989-08-24T09:37:05.800 ,0,0,0.,24.0,0.,24.0
1989-08-24T09:37:08.800 ,4,1,0.,24.0,0.,24.0
1989-08-24T09:37:32.800 ,4,0,0.,24.0,0.,24.0
1989-08-24T09:37:56.800 ,3,1,0.,24.0,0.,24.0
1989-08-24T09:38:20.800 ,3,0,0.,24.0,0.,24.0
1989-08-24T09:38:44.800 ,2,1,0.,24.0,0.,24.0
1989-08-24T09:39:08.800 ,2,0,0.,24.0,0.,24.0
1989-08-24T09:39:32.800 ,1,1,0.,24.0,0.,24.0
1989-08-24T09:39:56.800 ,1,0,0.,24.0,0.,24.0
1989-08-24T09:40:20.800 ,0,1,0.,24.0,0.,24.0
1989-08-24T09:40:44.800 ,0,0,0.,24.0,0.,24.0
1989-08-24T09:41:08.800 ,0,1,0.,24.0,0.,24.0
1989-08-24T09:41:32.800 ,0,0,0.,24.0,0.,24.0
1989-08-24T09:41:56.800 ,1,1,0.,24.0,0.,24.0
1989-08-24T09:42:20.800 ,1,0,0.,24.0,0.,24.0
1989-08-24T09:42:44.800 ,2,1,0.,24.0,0.,24.0
1989-08-24T09:43:08.800 ,2,0,0.,24.0,0.,24.0
1989-08-24T09:43:32.800 ,3,1,0.,24.0,0.,24.0
1989-08-24T09:43:56.800 ,3,0,0.,24.0,0.,24.0
1989-08-24T09:44:20.800 ,4,1,0.,24.0,0.,24.0
1989-08-24T09:44:44.800 ,4,0,0.,24.0,0.,24.0
1989-08-24T09:45:08.800 ,5,1,0.,24.0,0.,24.0
1989-08-24T09:45:32.800 ,5,0,0.,24.0,0.,24.0
1989-08-24T09:45:56.800 ,6,1,0.,24.0,0.,24.0
1989-08-24T09:46:20.800 ,6,0,0.,24.0,0.,24.0
1989-08-24T09:46:44.800 ,7,1,0.,24.0,0.,24.0
1989-08-24T09:47:08.800 ,7,0,0.,24.0,0.,24.0
1989-08-24T09:47:32.800 ,7,1,0.,24.0,0.,24.0
1989-08-24T09:47:56.800 ,7,0,0.,24.0,0.,24.0
1989-08-24T09:48:20.800 ,6,1,0.,24.0,0.,24.0
1989-08-24T09:48:44.800 ,6,0,0.,24.0,0.,24.0
1989-08-24T09:49:08.800 ,5,1,0.,24.0,0.,24.0
1989-08-24T09:49:32.800 ,5,0,0.,24.0,0.,24.0
1989-08-24T09:49:56.790 ,4,1,0.,24.0,0.,24.0
1989-08-24T09:50:20.790 ,4,0,0.,24.0,0.,24.0
1989-08-24T09:50:44.790 ,3,1,0.,24.0,0.,24.0
1989-08-24T09:51:08.790 ,3,0,0.,24.0,0.,24.0
1989-08-24T09:51:32.790 ,2,1,0.,24.0,0.,24.0
1989-08-24T09:51:56.790 ,2,0,0.,24.0,0.,24.0
1989-08-24T09:51:32.790 ,0,0,,0,,0
1989-08-24T09:51:56.790 ,0,0,,0,,0
1989-08-24T09:52:20.790 ,1,1,0.,24.0,0.,24.0
1989-08-24T09:52:44.790 ,1,0,0.,24.0,0.,24.0
1989-08-24T09:53:08.790 ,0,1,0.,24.0,0.,24.0
1989-08-24T09:53:32.790 ,0,0,0.,24.0,0.,24.0
1989-08-24T09:53:56.790 ,0,1,0.,24.0,0.,24.0
1989-08-24T09:54:20.790 ,0,0,0.,24.0,0.,24.0
1989-08-24T09:54:44.790 ,1,1,0.,24.0,0.,24.0
1989-08-24T09:55:08.790 ,1,0,0.,24.0,0.,24.0
1989-08-24T09:55:32.790 ,2,1,0.,24.0,0.,24.0
1989-08-24T09:55:56.790 ,2,0,0.,24.0,0.,24.0
1989-08-24T09:56:20.790 ,3,1,0.,24.0,0.,24.0
1989-08-24T09:56:44.790 ,3,0,0.,24.0,0.,24.0
1989-08-24T09:57:08.790 ,4,1,0.,24.0,0.,24.0
1989-08-24T09:57:32.790 ,4,0,0.,24.0,0.,24.0
1989-08-24T09:57:56.790 ,5,1,0.,24.0,0.,24.0
1989-08-24T09:58:20.790 ,5,0,0.,24.0,0.,24.0
1989-08-24T09:58:44.790 ,6,1,0.,24.0,0.,24.0
1989-08-24T09:59:08.790 ,6,0,0.,24.0,0.,24.0
1989-08-24T09:59:32.790 ,7,1,0.,24.0,0.,24.0
1989-08-24T09:59:56.790 ,7,0,0.,24.0,0.,24.0
1989-08-24T10:00:20.800 ,7,1,0.,24.0,0.,24.0
1989-08-24T10:00:44.800 ,7,0,0.,24.0,0.,24.0
1989-08-24T10:01:08.800 ,6,1,0.,24.0,0.,24.0
1989-08-24T10:01:32.800 ,6,0,0.,24.0,0.,24.0
1989-08-24T10:01:56.800 ,5,1,0.,24.0,0.,24.0
1989-08-24T10:02:20.790 ,5,0,0.,24.0,0.,24.0
1989-08-24T10:02:44.790 ,4,1,0.,24.0,0.,24.0
1989-08-24T10:03:08.790 ,4,0,0.,24.0,0.,24.0
1989-08-24T10:03:32.790 ,3,1,0.,24.0,0.,24.0
1989-08-24T10:03:56.790 ,3,0,0.,24.0,0.,24.0
1989-08-24T10:04:20.790 ,2,1,0.,24.0,0.,24.0
1989-08-24T10:04:44.790 ,2,0,0.,24.0,0.,24.0
1989-08-24T10:05:08.790 ,1,1,0.,24.0,0.,24.0
1989-08-24T10:05:32.790 ,1,0,0.,24.0,0.,24.0
1989-08-24T10:05:56.790 ,0,1,0.,24.0,0.,24.0
1989-08-24T10:06:20.790 ,0,0,0.,24.0,0.,24.0
1989-08-24T10:06:44.790 ,0,1,0.,24.0,0.,24.0
1989-08-24T10:07:08.790 ,0,0,0.,24.0,0.,24.0
1989-08-24T10:07:32.790 ,1,1,0.,24.0,0.,24.0
1989-08-24T10:07:56.790 ,1,0,0.,24.0,0.,24.0
1989-08-24T10:08:20.790 ,2,1,0.,24.0,0.,24.0
1989-08-24T10:08:44.790 ,2,0,0.,24.0,0.,24.0
1989-08-24T10:09:08.790 ,3,1,0.,24.0,0.,24.0
1989-08-24T10:09:32.790 ,3,0,0.,24.0,0.,24.0
1989-08-24T10:09:56.790 ,4,1,0.,24.0,0.,24.0
1989-08-24T10:10:20.790 ,4,0,0.,24.0,0.,24.0
1989-08-24T10:10:44.790 ,5,1,0.,24.0,0.,24.0
1989-08-24T10:11:08.790 ,5,0,0.,24.0,0.,24.0
1989-08-24T10:11:32.790 ,6,1,0.,24.0,0.,24.0
1989-08-24T10:11:56.790 ,6,0,0.,24.0,0.,24.0
1989-08-24T10:12:20.790 ,7,1,0.,24.0,0.,24.0
1989-08-24T10:12:44.790 ,7,0,0.,24.0,0.,24.0
1989-08-24T10:13:08.790 ,7,1,0.,24.0,0.,24.0
1989-08-24T10:13:32.790 ,7,0,0.,24.0,0.,24.0
1989-08-24T10:13:56.790 ,6,1,0.,24.0,0.,24.0
1989-08-24T10:14:20.790 ,6,0,0.,24.0,0.,24.0
1989-08-24T10:14:44.790 ,5,1,0.,24.0,0.,24.0
1989-08-24T10:15:08.790 ,5,0,0.,24.0,0.,24.0
1989-08-24T10:15:32.790 ,4,1,0.,24.0,0.,24.0
1989-08-24T10:15:56.790 ,4,0,0.,24.0,0.,24.0
1989-08-24T10:16:20.790 ,3,1,0.,24.0,0.,24.0
1989-08-24T10:16:44.790 ,3,0,0.,24.0,0.,24.0
1989-08-24T10:17:08.790 ,2,1,0.,24.0,0.,24.0
1989-08-24T10:17:32.790 ,2,0,0.,24.0,0.,24.0
1989-08-24T10:17:56.790 ,1,1,0.,24.0,0.,24.0
1989-08-24T10:18:20.790 ,1,0,0.,24.0,0.,24.0
1989-08-24T10:18:44.790 ,0,1,0.,24.0,0.,24.0
1989-08-24T10:19:08.790 ,0,0,0.,24.0,0.,24.0
1989-08-24T10:19:32.790 ,0,1,0.,24.0,0.,24.0
1989-08-24T10:19:56.790 ,0,0,0.,24.0,0.,24.0
1989-08-24T10:20:20.790 ,1,1,0.,24.0,0.,24.0
1989-08-24T10:20:44.790 ,1,0,0.,24.0,0.,24.0
1989-08-24T10:21:08.790 ,2,1,0.,24.0,0.,24.0
1989-08-24T10:21:32.790 ,2,0,0.,24.0,0.,24.0
1989-08-24T10:21:56.790 ,3,1,0.,24.0,0.,24.0
1989-08-24T10:22:20.790 ,3,0,0.,24.0,0.,24.0
1989-08-24T10:22:44.790 ,4,1,0.,24.0,0.,24.0
1989-08-24T10:23:08.790 ,4,0,0.,24.0,0.,24.0
1989-08-24T10:23:32.790 ,5,1,0.,24.0,0.,24.0
1989-08-24T10:23:56.790 ,5,0,0.,24.0,0.,24.0
1989-08-24T10:24:20.790 ,6,1,0.,24.0,0.,24.0
1989-08-24T10:24:44.790 ,6,0,0.,24.0,0.,24.0
1989-08-24T10:25:08.790 ,7,1,0.,24.0,0.,24.0
1989-08-24T10:25:32.790 ,7,0,0.,24.0,0.,24.0
1989-08-24T10:25:56.790 ,7,1,0.,24.0,0.,24.0
1989-08-24T10:26:20.790 ,7,0,0.,24.0,0.,24.0
1989-08-24T10:26:44.790 ,6,1,0.,24.0,0.,24.0
1989-08-24T10:27:08.790 ,6,0,0.,24.0,0.,24.0
1989-08-24T10:27:32.790 ,5,1,0.,24.0,0.,24.0
1989-08-24T10:27:56.790 ,5,0,0.,24.0,0.,24.0
1989-08-24T10:28:20.790 ,4,1,0.,24.0,0.,24.0
1989-08-24T10:28:44.790 ,4,0,0.,24.0,0.,24.0
1989-08-24T10:29:08.790 ,3,1,0.,24.0,0.,24.0
1989-08-24T10:29:32.790 ,3,0,0.,24.0,0.,24.0
1989-08-24T10:29:56.790 ,2,1,0.,24.0,0.,24.0
1989-08-24T10:30:20.790 ,2,0,0.,24.0,0.,24.0
1989-08-24T10:30:44.790 ,1,1,0.,24.0,0.,24.0
1989-08-24T10:31:08.790 ,1,0,0.,24.0,0.,24.0
1989-08-24T10:31:32.790 ,0,1,0.,24.0,0.,24.0
1989-08-24T10:31:56.790 ,0,0,0.,24.0,0.,24.0
1989-08-24T10:32:20.790 ,0,1,0.,24.0,0.,24.0
1989-08-24T10:32:44.790 ,0,0,0.,24.0,0.,24.0
1989-08-24T10:33:08.790 ,1,1,0.,24.0,0.,24.0
1989-08-24T10:33:32.790 ,1,0,0.,24.0,0.,24.0
1989-08-24T10:33:56.790 ,2,1,0.,24.0,0.,24.0
1989-08-24T10:34:20.790 ,2,0,0.,24.0,0.,24.0
1989-08-24T10:34:44.790 ,3,1,0.,24.0,0.,24.0
1989-08-24T10:35:08.790 ,3,0,0.,24.0,0.,24.0
1989-08-24T10:35:32.790 ,4,1,0.,24.0,0.,24.0
1989-08-24T10:35:56.790 ,4,0,0.,24.0,0.,24.0
1989-08-24T10:36:20.790 ,5,1,0.,24.0,0.,24.0
1989-08-24T10:36:44.790 ,5,0,0.,24.0,0.,24.0
1989-08-24T10:37:08.790 ,6,1,0.,24.0,0.,24.0
1989-08-24T10:37:32.790 ,6,0,0.,24.0,0.,24.0
1989-08-24T10:37:56.790 ,7,1,0.,24.0,0.,24.0
1989-08-24T10:38:20.790 ,7,0,0.,24.0,0.,24.0
1989-08-24T10:38:44.790 ,7,1,0.,24.0,0.,24.0
1989-08-24T10:39:08.790 ,7,0,0.,24.0,0.,24.0
1989-08-24T10:39:32.790 ,6,1,0.,24.0,0.,24.0
1989-08-24T10:39:56.790 ,6,0,0.,24.0,0.,24.0
1989-08-24T10:40:20.790 ,5,1,0.,24.0,0.,24.0
1989-08-24T10:40:44.790 ,5,0,0.,24.0,0.,24.0
1989-08-24T10:41:08.790 ,4,1,0.,24.0,0.,24.0
1989-08-24T10:41:32.790 ,4,0,0.,24.0,0.,24.0
1989-08-24T10:41:56.790 ,3,1,0.,24.0,0.,24.0
1989-08-24T10:42:20.790 ,3,0,0.,24.0,0.,24.0
1989-08-24T10:42:44.790 ,2,1,0.,24.0,0.,24.0
1989-08-24T10:43:08.790 ,2,0,0.,24.0,0.,24.0
1989-08-24T10:43:32.790 ,1,1,0.,24.0,0.,24.0
1989-08-24T10:43:56.790 ,1,0,0.,24.0,0.,24.0
1989-08-24T10:44:20.790 ,0,1,0.,24.0,0.,24.0
1989-08-24T10:44:44.790 ,0,0,0.,24.0,0.,24.0
1989-08-24T10:45:08.790 ,0,1,0.,24.0,0.,24.0
1989-08-24T10:45:32.790 ,0,0,0.,24.0,0.,24.0
1989-08-24T10:45:56.790 ,1,1,0.,24.0,0.,24.0
1989-08-24T10:46:20.790 ,1,0,0.,24.0,0.,24.0
1989-08-24T10:46:44.790 ,2,1,0.,24.0,0.,24.0
1989-08-24T10:47:08.790 ,2,0,0.,24.0,0.,24.0
1989-08-24T10:47:32.790 ,3,1,0.,24.0,0.,24.0
1989-08-24T10:47:56.790 ,3,0,0.,24.0,0.,24.0
1989-08-24T10:48:20.790 ,4,1,0.,24.0,0.,24.0
1989-08-24T10:48:44.790 ,0,0,,0,,0
1989-08-24T10:49:02.190 ,0,0,0.,24.0,0.,24.0
1989-08-24T10:49:08.790 ,5,1,0.,24.0,0.,24.0
1989-08-24T10:49:32.790 ,5,0,0.,24.0,0.,24.0
1989-08-24T10:49:56.790 ,6,1,0.,24.0,0.,24.0
1989-08-24T10:50:20.790 ,6,0,0.,24.0,0.,24.0
1989-08-24T10:50:44.790 ,7,1,0.,24.0,0.,24.0
1989-08-24T10:51:08.790 ,7,0,0.,24.0,0.,24.0
1989-08-24T10:51:32.790 ,7,1,0.,24.0,0.,24.0
1989-08-24T10:51:56.790 ,7,0,0.,24.0,0.,24.0
1989-08-24T10:52:20.790 ,6,1,0.,24.0,0.,24.0
1989-08-24T10:52:44.790 ,6,0,0.,24.0,0.,24.0
1989-08-24T10:53:08.790 ,5,1,0.,24.0,0.,24.0
1989-08-24T10:53:32.790 ,5,0,0.,24.0,0.,24.0
1989-08-24T10:53:56.790 ,4,1,0.,24.0,0.,24.0
1989-08-24T10:54:20.790 ,4,0,0.,24.0,0.,24.0
1989-08-24T10:54:44.790 ,3,1,0.,24.0,0.,24.0
1989-08-24T10:55:08.790 ,3,0,0.,24.0,0.,24.0
1989-08-24T10:55:32.790 ,2,1,0.,24.0,0.,24.0
1989-08-24T10:55:56.790 ,2,0,0.,24.0,0.,24.0
1989-08-24T10:56:20.790 ,1,1,0.,24.0,0.,24.0
1989-08-24T10:56:44.790 ,1,0,0.,24.0,0.,24.0
1989-08-24T10:57:08.790 ,0,1,0.,24.0,0.,24.0
1989-08-24T10:57:32.790 ,0,0,0.,24.0,0.,24.0
1989-08-24T10:57:56.790 ,0,1,0.,24.0,0.,24.0
1989-08-24T10:58:20.790 ,0,0,0.,24.0,0.,24.0
1989-08-24T10:58:44.790 ,1,1,0.,24.0,0.,24.0
1989-08-24T10:59:08.790 ,1,0,0.,24.0,0.,24.0
1989-08-24T10:59:32.790 ,2,1,0.,24.0,0.,24.0
1989-08-24T10:59:56.790 ,2,0,0.,24.0,0.,24.0
1989-08-24T11:00:20.790 ,3,1,0.,24.0,0.,24.0
1989-08-24T11:00:44.790 ,3,0,0.,24.0,0.,24.0
1989-08-24T11:01:08.790 ,4,1,0.,24.0,0.,24.0
1989-08-24T11:01:32.790 ,4,0,0.,24.0,0.,24.0
1989-08-24T11:01:56.790 ,5,1,0.,24.0,0.,24.0
1989-08-24T11:02:20.790 ,5,0,0.,24.0,0.,24.0
1989-08-24T11:02:44.790 ,6,1,0.,24.0,0.,24.0
1989-08-24T11:03:08.790 ,6,0,0.,24.0,0.,24.0
1989-08-24T11:03:32.790 ,7,1,0.,24.0,0.,24.0
1989-08-24T11:03:56.790 ,7,0,0.,24.0,0.,24.0
1989-08-24T11:04:20.790 ,7,1,0.,24.0,0.,24.0
1989-08-24T11:04:44.790 ,7,0,0.,24.0,0.,24.0
1989-08-24T11:05:08.790 ,6,1,0.,24.0,0.,24.0
1989-08-24T11:05:32.790 ,6,0,0.,24.0,0.,24.0
1989-08-24T11:05:56.790 ,5,1,0.,24.0,0.,24.0
1989-08-24T11:06:20.790 ,5,0,0.,24.0,0.,24.0
1989-08-24T11:06:44.790 ,4,1,0.,24.0,0.,24.0
1989-08-24T11:07:08.790 ,4,0,0.,24.0,0.,24.0
1989-08-24T11:07:32.790 ,3,1,0.,24.0,0.,24.0
1989-08-24T11:07:56.790 ,3,0,0.,24.0,0.,24.0
1989-08-24T11:08:20.790 ,2,1,0.,24.0,0.,24.0
1989-08-24T11:08:44.790 ,2,0,0.,24.0,0.,24.0
1989-08-24T11:09:08.790 ,1,1,0.,24.0,0.,24.0
1989-08-24T11:09:32.790 ,1,0,0.,24.0,0.,24.0
1989-08-24T11:09:56.790 ,0,1,0.,24.0,0.,24.0
1989-08-24T11:10:20.790 ,0,0,0.,24.0,0.,24.0
1989-08-24T11:10:44.790 ,0,1,0.,24.0,0.,24.0
1989-08-24T11:11:08.790 ,0,0,0.,24.0,0.,24.0
1989-08-24T11:11:32.790 ,1,1,0.,24.0,0.,24.0
1989-08-24T11:11:56.790 ,1,0,0.,24.0,0.,24.0
1989-08-24T11:12:20.790 ,2,1,0.,24.0,0.,24.0
1989-08-24T11:12:44.790 ,2,0,0.,24.0,0.,24.0
1989-08-24T11:13:08.790 ,3,1,0.,24.0,0.,24.0
1989-08-24T11:13:32.790 ,3,0,0.,24.0,0.,24.0
1989-08-24T11:13:56.790 ,4,1,0.,24.0,0.,24.0
1989-08-24T11:14:20.790 ,4,0,0.,24.0,0.,24.0
1989-08-24T11:14:44.790 ,5,1,0.,24.0,0.,24.0
1989-08-24T11:15:08.790 ,5,0,0.,24.0,0.,24.0
1989-08-24T11:15:32.790 ,6,1,0.,24.0,0.,24.0
1989-08-24T11:15:56.790 ,6,0,0.,24.0,0.,24.0
1989-08-24T11:16:20.790 ,7,1,0.,24.0,0.,24.0
1989-08-24T11:16:44.790 ,7,0,0.,24.0,0.,24.0
1989-08-24T11:17:08.790 ,7,1,0.,24.0,0.,24.0
1989-08-24T11:17:32.790 ,7,0,0.,24.0,0.,24.0
1989-08-24T11:17:56.790 ,6,1,0.,24.0,0.,24.0
1989-08-24T11:18:20.790 ,6,0,0.,24.0,0.,24.0
1989-08-24T11:18:44.790 ,5,1,0.,24.0,0.,24.0
1989-08-24T11:19:08.790 ,5,0,0.,24.0,0.,24.0
1989-08-24T11:19:32.790 ,4,1,0.,24.0,0.,24.0
1989-08-24T11:19:56.790 ,4,0,0.,24.0,0.,24.0
1989-08-24T11:20:20.790 ,3,1,0.,24.0,0.,24.0
1989-08-24T11:20:44.790 ,3,0,0.,24.0,0.,24.0
1989-08-24T11:21:08.790 ,2,1,0.,24.0,0.,24.0
1989-08-24T11:21:32.790 ,2,0,0.,24.0,0.,24.0
1989-08-24T11:21:56.790 ,1,1,0.,24.0,0.,24.0
1989-08-24T11:22:20.790 ,1,0,0.,24.0,0.,24.0
1989-08-24T11:22:44.790 ,0,1,0.,24.0,0.,24.0
1989-08-24T11:23:08.790 ,0,0,0.,24.0,0.,24.0
1989-08-24T11:23:32.790 ,0,1,0.,24.0,0.,24.0
1989-08-24T11:23:56.790 ,0,0,0.,24.0,0.,24.0
1989-08-24T11:24:20.790 ,1,1,0.,24.0,0.,24.0
1989-08-24T11:24:44.790 ,1,0,0.,24.0,0.,24.0
1989-08-24T11:25:08.790 ,2,1,0.,24.0,0.,24.0
1989-08-24T11:25:32.790 ,2,0,0.,24.0,0.,24.0
1989-08-24T11:25:56.790 ,3,1,0.,24.0,0.,24.0
1989-08-24T11:26:20.790 ,3,0,0.,24.0,0.,24.0
1989-08-24T11:26:44.790 ,4,1,0.,24.0,0.,24.0
1989-08-24T11:27:08.790 ,4,0,0.,24.0,0.,24.0
1989-08-24T11:27:32.790 ,5,1,0.,24.0,0.,24.0
1989-08-24T11:27:56.790 ,5,0,0.,24.0,0.,24.0
1989-08-24T11:28:20.790 ,6,1,0.,24.0,0.,24.0
1989-08-24T11:28:44.790 ,0,0,0.,24.0,0.,24.0
1989-08-24T11:29:08.790 ,7,1,0.,24.0,0.,24.0
1989-08-24T11:29:32.790 ,7,0,0.,24.0,0.,24.0
1989-08-24T11:29:56.790 ,7,1,0.,24.0,0.,24.0
1989-08-24T11:30:20.790 ,7,0,0.,24.0,0.,24.0
1989-08-24T11:30:44.790 ,6,1,0.,24.0,0.,24.0
1989-08-24T11:31:08.790 ,6,0,0.,24.0,0.,24.0
1989-08-24T11:31:32.790 ,5,1,0.,24.0,0.,24.0
1989-08-24T11:31:56.790 ,5,0,0.,24.0,0.,24.0
1989-08-24T11:32:20.790 ,4,1,0.,24.0,0.,24.0
1989-08-24T11:32:44.790 ,4,0,0.,24.0,0.,24.0
1989-08-24T11:33:08.790 ,3,1,0.,24.0,0.,24.0
1989-08-24T11:33:32.790 ,3,0,0.,24.0,0.,24.0
1989-08-24T11:33:56.790 ,2,1,0.,24.0,0.,24.0
1989-08-24T11:34:20.790 ,2,0,0.,24.0,0.,24.0
1989-08-24T11:34:44.790 ,1,1,0.,24.0,0.,24.0
1989-08-24T11:35:08.790 ,1,0,0.,24.0,0.,24.0
1989-08-24T11:35:32.790 ,0,1,0.,24.0,0.,24.0
1989-08-24T11:35:56.790 ,0,0,0.,24.0,0.,24.0
1989-08-24T11:36:20.790 ,0,1,0.,24.0,0.,24.0
1989-08-24T11:36:44.790 ,0,0,0.,24.0,0.,24.0
1989-08-24T11:37:08.790 ,1,1,0.,24.0,0.,24.0
1989-08-24T11:37:32.790 ,1,0,0.,24.0,0.,24.0
1989-08-24T11:37:56.790 ,2,1,0.,24.0,0.,24.0
1989-08-24T11:38:20.790 ,2,0,0.,24.0,0.,24.0
1989-08-24T11:38:44.790 ,3,1,0.,24.0,0.,24.0
1989-08-24T11:39:08.790 ,3,0,0.,24.0,0.,24.0
1989-08-24T11:39:32.790 ,4,1,0.,24.0,0.,24.0
1989-08-24T11:39:56.790 ,4,0,0.,24.0,0.,24.0
1989-08-24T11:40:20.790 ,5,1,0.,24.0,0.,24.0
1989-08-24T11:40:44.790 ,5,0,0.,24.0,0.,24.0
1989-08-24T11:41:08.790 ,6,1,0.,24.0,0.,24.0
1989-08-24T11:41:32.790 ,6,0,0.,24.0,0.,24.0
1989-08-24T11:41:56.790 ,7,1,0.,24.0,0.,24.0
1989-08-24T11:42:20.790 ,7,0,0.,24.0,0.,24.0
1989-08-24T11:42:44.790 ,7,1,0.,24.0,0.,24.0
1989-08-24T11:43:08.790 ,7,0,0.,24.0,0.,24.0
1989-08-24T11:43:32.790 ,6,1,0.,24.0,0.,24.0
1989-08-24T11:43:56.790 ,6,0,0.,24.0,0.,24.0
1989-08-24T11:44:20.790 ,5,1,0.,24.0,0.,24.0
1989-08-24T11:44:44.790 ,5,0,0.,24.0,0.,24.0
1989-08-24T11:45:08.790 ,4,1,0.,24.0,0.,24.0
1989-08-24T11:45:32.790 ,4,0,0.,24.0,0.,24.0
1989-08-24T11:45:56.790 ,3,1,0.,24.0,0.,24.0
1989-08-24T11:46:20.790 ,3,0,0.,24.0,0.,24.0
1989-08-24T11:46:44.790 ,2,1,0.,24.0,0.,24.0
1989-08-24T11:47:08.790 ,2,0,0.,24.0,0.,24.0
1989-08-24T11:47:32.790 ,1,1,0.,24.0,0.,24.0
1989-08-24T11:47:56.790 ,1,0,0.,24.0,0.,24.0
1989-08-24T11:48:20.790 ,0,1,0.,24.0,0.,24.0
1989-08-24T11:48:44.790 ,0,0,0.,24.0,0.,24.0
1989-08-24T11:49:08.790 ,0,1,0.,24.0,0.,24.0
1989-08-24T11:49:32.790 ,0,0,0.,24.0,0.,24.0
1989-08-24T11:49:56.790 ,1,1,0.,24.0,0.,24.0
1989-08-24T11:50:20.790 ,1,0,0.,24.0,0.,24.0
1989-08-24T11:50:44.790 ,2,1,0.,24.0,0.,24.0
1989-08-24T11:51:08.790 ,2,0,0.,24.0,0.,24.0
1989-08-24T11:51:32.790 ,3,1,0.,24.0,0.,24.0
1989-08-24T11:51:56.790 ,3,0,0.,24.0,0.,24.0
1989-08-24T11:52:20.790 ,4,1,0.,24.0,0.,24.0
1989-08-24T11:52:44.790 ,4,0,0.,24.0,0.,24.0
1989-08-24T11:53:08.790 ,5,1,0.,24.0,0.,24.0
1989-08-24T11:53:32.790 ,5,0,0.,24.0,0.,24.0
1989-08-24T11:53:56.790 ,6,1,0.,24.0,0.,24.0
1989-08-24T11:54:20.790 ,6,0,0.,24.0,0.,24.0
1989-08-24T11:54:44.790 ,7,1,0.,24.0,0.,24.0
1989-08-24T11:55:08.790 ,7,0,0.,24.0,0.,24.0
1989-08-24T11:55:32.790 ,7,1,0.,24.0,0.,24.0
1989-08-24T11:55:56.790 ,7,0,0.,24.0,0.,24.0
1989-08-24T11:56:20.790 ,6,1,0.,24.0,0.,24.0
1989-08-24T11:56:44.790 ,6,0,0.,24.0,0.,24.0
1989-08-24T11:57:08.790 ,5,1,0.,24.0,0.,24.0
1989-08-24T11:57:32.790 ,5,0,0.,24.0,0.,24.0
1989-08-24T11:57:56.790 ,4,1,0.,24.0,0.,24.0
1989-08-24T11:58:20.790 ,4,0,0.,24.0,0.,24.0
1989-08-24T11:58:44.780 ,3,1,0.,24.0,0.,24.0
1989-08-24T11:59:08.780 ,3,0,0.,24.0,0.,24.0
1989-08-24T11:59:32.780 ,2,1,0.,24.0,0.,24.0
1989-08-24T11:59:56.780 ,2,0,0.,24.0,0.,24.0
1989-08-24T12:00:20.790 ,1,1,0.,24.0,0.,24.0
